KF0EZB Weather Reports


Display with metric or nautical units.
time (UTC)temp
F
wind
direction
speed
MPH
gust
MPH
rain 1hr
in
rain 24hr
in
rain mn
in
humidity
%
barometer
mb
20260901005726 94 111 1.0 5.0 0.00 0.00 0.00 33 1011.7
20260901005222 95 136 1.0 5.0 0.00 0.00 0.00 32 1011.6
20260901004721 95 107 2.0 2.0 0.00 0.00 0.00 32 1011.6
20260901004216 96 100 2.0 6.0 0.00 0.00 0.00 32 1011.3
20260901003716 96 102 5.0 7.0 0.00 0.00 0.00 31 1011.5
20260901003216 97 108 3.0 7.0 0.00 0.00 0.00 31 1011.6
20260901002709 98 113 3.0 7.0 0.00 0.00 0.00 30 1011.4
20260901002204 98 142 3.0 7.0 0.00 0.00 0.00 29 1011.5
20260901001700 98 123 4.0 9.0 0.00 0.00 0.00 29 1011.5
20260901001154 99 126 2.0 7.0 0.00 0.00 0.00 29 1011.5
20260901000650 99 74 5.0 8.0 0.00 0.00 0.00 28 1011.4
20260901000145 99 160 0.0 6.0 0.00 0.00 0.00 28 1011.5
20260831235644 100 90 2.0 7.0 0.00 0.00 0.00 28 1011.3
20260831235140 100 159 3.0 8.0 0.00 0.00 0.00 28 1011.3
20260831234639 100 130 3.0 9.0 0.00 0.00 0.00 27 1011.6
20260831234135 100 126 0.0 9.0 0.00 0.00 0.00 27 1011.7
20260831233630 101 99 1.0 6.0 0.00 0.00 0.00 27 1011.5
20260831233125 101 83 6.0 8.0 0.00 0.00 0.00 27 1011.5
20260831232620 101 181 1.0 5.0 0.00 0.00 0.00 26 1011.6
20260831232116 102 156 0.0 3.0 0.00 0.00 0.00 26 1011.6
20260831231613 101 108 7.0 10.0 0.00 0.00 0.00 26 1011.4
20260831231108 102 80 5.0 9.0 0.00 0.00 0.00 26 1011.4
20260831230604 102 110 3.0 8.0 0.00 0.00 0.00 26 1011.5
20260831225558 102 139 2.0 7.0 0.00 0.00 0.00 26 1011.7
20260831225053 103 102 4.0 8.0 0.00 0.00 0.00 26 1011.6
20260831224548 103 154 0.0 3.0 0.00 0.00 0.00 26 1011.6
20260831224044 103 149 2.0 6.0 0.00 0.00 0.00 26 1011.9
20260831223539 103 169 2.0 9.0 0.00 0.00 0.00 26 1011.6
20260831223035 103 164 5.0 10.0 0.00 0.00 0.00 26 1011.7
20260831222531 103 135 2.0 13.0 0.00 0.00 0.00 26 1011.9
20260831222030 104 147 4.0 6.0 0.00 0.00 0.00 26 1011.9
20260831221526 103 189 6.0 10.0 0.00 0.00 0.00 26 1011.7
20260831221022 103 130 3.0 9.0 0.00 0.00 0.00 26 1011.9
20260831220517 104 199 0.0 2.0 0.00 0.00 0.00 26 1012.0
20260831220012 104 163 3.0 6.0 0.00 0.00 0.00 26 1011.7
20260831215508 104 70 2.0 13.0 0.00 0.00 0.00 26 1012.2
20260831215003 104 181 2.0 6.0 0.00 0.00 0.00 27 1011.7
20260831214501 104 95 4.0 8.0 0.00 0.00 0.00 26 1012.1
20260831213956 105 215 3.0 8.0 0.00 0.00 0.00 26 1012.0
20260831213453 104 196 2.0 3.0 0.00 0.00 0.00 27 1012.0
20260831212952 105 187 2.0 3.0 0.00 0.00 0.00 26 1012.0
20260831212449 105 268 2.0 3.0 0.00 0.00 0.00 26 1012.3
20260831211943 105 100 2.0 7.0 0.00 0.00 0.00 26 1012.2
20260831211438 104 200 3.0 8.0 0.00 0.00 0.00 26 1012.2
20260831210937 104 303 1.0 3.0 0.00 0.00 0.00 27 1012.7
20260831210433 104 231 3.0 6.0 0.00 0.00 0.00 27 1012.7
20260831205928 104 165 5.0 7.0 0.00 0.00 0.00 27 1012.5
20260831205424 104 202 4.0 10.0 0.00 0.00 0.00 27 1012.9
20260831204919 104 191 0.0 9.0 0.00 0.00 0.00 27 1012.9
20260831204418 104 201 2.0 6.0 0.00 0.00 0.00 27 1013.0
20260831203918 103 180 1.0 7.0 0.00 0.00 0.00 27 1012.9
20260831203413 104 175 5.0 7.0 0.00 0.00 0.00 27 1012.7
20260831202911 104 243 0.0 2.0 0.00 0.00 0.00 27 1013.0
20260831202406 104 222 3.0 8.0 0.00 0.00 0.00 27 1013.2
20260831201906 104 228 4.0 9.0 0.00 0.00 0.00 27 1013.1
20260831201404 103 216 4.0 7.0 0.00 0.00 0.00 28 1013.3
20260831200901 104 148 0.0 3.0 0.00 0.00 0.00 27 1013.3
20260831200355 104 63 3.0 6.0 0.00 0.00 0.00 28 1013.4
20260831195850 104 102 3.0 5.0 0.00 0.00 0.00 27 1013.2
20260831195346 103 173 0.0 7.0 0.00 0.00 0.00 28 1013.4
20260831194841 103 265 3.0 8.0 0.00 0.00 0.00 29 1013.5
20260831194337 102 201 3.0 5.0 0.00 0.00 0.00 29 1013.7
20260831193836 103 193 0.0 10.0 0.00 0.00 0.00 29 1013.3
20260831193331 103 286 0.0 7.0 0.00 0.00 0.00 29 1013.7
20260831192826 103 185 0.0 0.0 0.00 0.00 0.00 30 1013.3
20260831192147 102 254 4.0 6.0 0.00 0.00 0.00 30 1013.8
20260831191643 102 254 4.0 6.0 0.00 0.00 0.00 30 1013.8
20260831191139 102 338 5.0 7.0 0.00 0.00 0.00 29 1013.9
20260831190634 102 338 5.0 7.0 0.00 0.00 0.00 29 1013.9
20260831190132 102 338 5.0 7.0 0.00 0.00 0.00 29 1013.9
20260831185628 102 214 1.0 3.0 0.00 0.00 0.00 30 1014.0
20260831184548 101 104 0.0 8.0 0.00 0.00 0.00 32 1014.2
20260831184044 101 104 0.0 8.0 0.00 0.00 0.00 32 1014.2
20260831183543 100 195 0.0 3.0 0.00 0.00 0.00 32 1014.2
20260831183043 100 195 0.0 3.0 0.00 0.00 0.00 32 1014.2
20260831182537 101 254 3.0 9.0 0.00 0.00 0.00 32 1014.2
20260831182032 100 140 3.0 5.0 0.00 0.00 0.00 33 1014.0
20260831181527 100 221 4.0 8.0 0.00 0.00 0.00 33 1014.3
20260831181027 99 214 0.0 2.0 0.00 0.00 0.00 33 1014.2
20260831180521 100 240 0.0 2.0 0.00 0.00 0.00 33 1014.4
20260831180017 99 258 0.0 3.0 0.00 0.00 0.00 34 1014.3
20260831175512 98 114 3.0 6.0 0.00 0.00 0.00 34 1014.3
20260831175009 98 226 0.0 9.0 0.00 0.00 0.00 34 1014.5
20260831174509 97 146 1.0 13.0 0.00 0.00 0.00 35 1014.6
20260831174003 97 308 2.0 11.0 0.00 0.00 0.00 34 1014.4
20260831173501 97 214 4.0 8.0 0.00 0.00 0.00 35 1014.5
20260831172957 97 42 1.0 5.0 0.00 0.00 0.00 35 1014.5
20260831172453 96 188 4.0 9.0 0.00 0.00 0.00 36 1014.7
20260831171948 97 261 2.0 5.0 0.00 0.00 0.00 36 1014.6
20260831171443 96 175 5.0 8.0 0.00 0.00 0.00 36 1014.5
20260831170940 96 229 3.0 7.0 0.00 0.00 0.00 37 1014.9
20260831170436 95 104 3.0 10.0 0.00 0.00 0.00 38 1014.5
20260831165933 95 198 3.0 8.0 0.00 0.00 0.00 37 1014.6
20260831165428 94 207 3.0 7.0 0.00 0.00 0.00 38 1014.6
20260831164925 94 176 3.0 5.0 0.00 0.00 0.00 38 1014.7
20260831164421 93 205 3.0 9.0 0.00 0.00 0.00 38 1014.7
20260831163915 94 186 0.0 1.0 0.00 0.00 0.00 39 1014.4
20260831163411 93 243 0.0 0.0 0.00 0.00 0.00 39 1014.5
20260831162910 93 194 2.0 5.0 0.00 0.00 0.00 39 1014.5
20260831162405 91 234 3.0 6.0 0.00 0.00 0.00 40 1014.7
20260831161903 91 135 4.0 9.0 0.00 0.00 0.00 41 1014.6
20260831161400 91 180 4.0 8.0 0.00 0.00 0.00 41 1014.7
20260831160855 90 60 3.0 7.0 0.00 0.00 0.00 41 1014.7
20260831160350 90 226 3.0 8.0 0.00 0.00 0.00 41 1014.4
20260831155845 90 182 3.0 10.0 0.00 0.00 0.00 41 1014.8
20260831155344 89 93 5.0 9.0 0.00 0.00 0.00 41 1014.6
20260831154840 89 113 2.0 10.0 0.00 0.00 0.00 41 1014.6
20260831154337 89 71 3.0 9.0 0.00 0.00 0.00 42 1014.3
20260831153835 89 152 2.0 8.0 0.00 0.00 0.00 42 1014.4
20260831153331 89 194 3.0 6.0 0.00 0.00 0.00 42 1014.5
20260831152827 88 249 2.0 10.0 0.00 0.00 0.00 43 1014.5
20260831152322 88 150 2.0 10.0 0.00 0.00 0.00 43 1014.4
20260831151818 89 175 2.0 5.0 0.00 0.00 0.00 42 1014.4
20260831151316 88 193 0.0 11.0 0.00 0.00 0.00 42 1014.4
20260831150812 88 168 2.0 6.0 0.00 0.00 0.00 43 1014.2
20260831150307 88 312 5.0 7.0 0.00 0.00 0.00 42 1014.6
20260831145806 88 87 1.0 3.0 0.00 0.00 0.00 43 1014.4
20260831145306 88 143 1.0 8.0 0.00 0.00 0.00 43 1014.6
20260831144758 87 78 3.0 5.0 0.00 0.00 0.00 44 1014.4
20260831144255 87 133 0.0 6.0 0.00 0.00 0.00 43 1014.5
20260831143754 87 117 3.0 5.0 0.00 0.00 0.00 43 1014.8
20260831143249 86 156 4.0 7.0 0.00 0.00 0.00 44 1014.6
20260831142744 86 97 2.0 7.0 0.00 0.00 0.00 44 1014.6
20260831142239 86 214 3.0 6.0 0.00 0.00 0.00 45 1014.9
20260831141350 85 135 0.0 5.0 0.00 0.00 0.00 46 1014.8
20260831140845 85 135 0.0 5.0 0.00 0.00 0.00 46 1014.8
20260831140339 84 118 1.0 5.0 0.00 0.00 0.00 48 1014.8
20260831135838 83 97 2.0 5.0 0.00 0.00 0.00 48 1014.8
20260831134412 80 136 2.0 3.0 0.00 0.00 0.00 57 1014.8
20260831133911 80 136 2.0 3.0 0.00 0.00 0.00 57 1014.8
20260831133406 79 133 1.0 6.0 0.00 0.00 0.00 58 1014.8
20260831132901 79 95 3.0 5.0 0.00 0.00 0.00 58 1014.6
20260831132356 79 115 1.0 6.0 0.00 0.00 0.00 56 1014.9
20260831131855 80 126 4.0 6.0 0.00 0.00 0.00 55 1014.7
20260831131351 80 124 4.0 6.0 0.00 0.00 0.00 54 1014.7
20260831130846 80 101 2.0 3.0 0.00 0.00 0.00 55 1014.8
20260831130342 79 116 4.0 5.0 0.00 0.00 0.00 56 1014.8
20260831125841 78 116 1.0 5.0 0.00 0.00 0.00 58 1014.8
20260831125336 77 116 3.0 6.0 0.00 0.00 0.00 59 1014.7
20260831124831 77 90 3.0 6.0 0.00 0.00 0.00 60 1014.9
20260831124328 77 116 2.0 2.0 0.00 0.00 0.00 60 1014.7
20260831123827 77 126 1.0 1.0 0.00 0.00 0.00 60 1015.0
20260831123326 76 128 0.0 0.0 0.00 0.00 0.00 61 1015.0
20260831122821 76 124 0.0 1.0 0.00 0.00 0.00 61 1014.8
20260831122317 76 127 2.0 3.0 0.00 0.00 0.00 62 1014.7
20260831121816 75 122 0.0 0.0 0.00 0.00 0.00 63 1014.8
20260831121313 75 118 0.0 1.0 0.00 0.00 0.00 64 1014.9
20260831120808 75 118 0.0 0.0 0.00 0.00 0.00 64 1014.7
20260831120302 75 117 0.0 0.0 0.00 0.00 0.00 64 1014.7
20260831115757 75 110 0.0 0.0 0.00 0.00 0.00 64 1014.6
20260831115254 76 102 0.0 0.0 0.00 0.00 0.00 63 1015.0
20260831114753 76 84 0.0 0.0 0.00 0.00 0.00 62 1014.9
20260831114247 76 58 0.0 0.0 0.00 0.00 0.00 63 1014.6
20260831113743 75 146 2.0 2.0 0.00 0.00 0.00 66 1014.9
20260831113237 75 156 0.0 0.0 0.00 0.00 0.00 67 1015.0
20260831112736 75 157 0.0 0.0 0.00 0.00 0.00 68 1014.8
20260831112232 75 157 0.0 0.0 0.00 0.00 0.00 67 1014.8
20260831111727 75 157 0.0 0.0 0.00 0.00 0.00 67 1014.6
20260831111223 75 157 0.0 0.0 0.00 0.00 0.00 67 1014.7
20260831110719 75 157 0.0 0.0 0.00 0.00 0.00 66 1014.6
20260831110214 76 157 0.0 0.0 0.00 0.00 0.00 65 1014.6
20260831105712 76 158 0.0 0.0 0.00 0.00 0.00 65 1014.7
20260831105208 76 158 0.0 0.0 0.00 0.00 0.00 64 1014.7
20260831104703 77 158 0.0 0.0 0.00 0.00 0.00 64 1014.7
20260831104200 77 159 0.0 1.0 0.00 0.00 0.00 63 1014.7
20260831103659 77 162 0.0 1.0 0.00 0.00 0.00 62 1014.7
20260831103155 78 166 0.0 0.0 0.00 0.00 0.00 60 1014.8
20260831102654 78 170 0.0 0.0 0.00 0.00 0.00 60 1015.0
20260831102149 78 181 0.0 0.0 0.00 0.00 0.00 60 1015.1
20260831101645 78 192 0.0 0.0 0.00 0.00 0.00 59 1015.5
20260831101141 78 209 0.0 0.0 0.00 0.00 0.00 59 1015.1
20260831100637 79 247 0.0 0.0 0.00 0.00 0.00 58 1015.2
20260831100133 79 273 0.0 1.0 0.00 0.00 0.00 58 1015.1
20260831095630 79 292 0.0 5.0 0.00 0.00 0.00 57 1015.1
20260831095126 78 312 0.0 0.0 0.00 0.00 0.00 59 1014.9
20260831094621 77 163 0.0 0.0 0.00 0.00 0.00 61 1014.3
20260831094117 77 163 0.0 0.0 0.00 0.00 0.00 61 1014.3
20260831093613 77 164 0.0 0.0 0.00 0.00 0.00 60 1014.2
20260831093109 77 164 0.0 0.0 0.00 0.00 0.00 60 1014.1
20260831092604 77 165 0.0 0.0 0.00 0.00 0.00 60 1014.1
20260831092100 78 167 0.0 0.0 0.00 0.00 0.00 59 1014.0
20260831091559 78 171 0.0 0.0 0.00 0.00 0.00 59 1013.9
20260831091055 78 166 0.0 0.0 0.00 0.00 0.00 59 1013.5
20260831090550 78 166 0.0 0.0 0.00 0.00 0.00 59 1013.4
20260831090046 78 168 0.0 0.0 0.00 0.00 0.00 59 1013.5
20260831085541 78 170 0.0 0.0 0.00 0.00 0.00 58 1013.5
20260831085036 78 165 0.0 0.0 0.00 0.00 0.00 58 1013.5
20260831084532 78 165 0.0 0.0 0.00 0.00 0.00 58 1013.3
20260831084028 79 166 0.0 0.0 0.00 0.00 0.00 58 1013.3
20260831083524 79 168 0.0 0.0 0.00 0.00 0.00 57 1013.3
20260831083018 79 168 0.0 0.0 0.00 0.00 0.00 57 1013.1
20260831082512 79 164 0.0 0.0 0.00 0.00 0.00 58 1013.1
20260831082007 80 164 0.0 0.0 0.00 0.00 0.00 57 1013.2
20260831081503 80 164 0.0 0.0 0.00 0.00 0.00 57 1013.2
20260831080959 80 165 0.0 0.0 0.00 0.00 0.00 57 1013.1
20260831080453 80 165 0.0 0.0 0.00 0.00 0.00 56 1013.2
20260831075948 80 165 0.0 0.0 0.00 0.00 0.00 56 1013.3
20260831075444 80 166 0.0 0.0 0.00 0.00 0.00 56 1013.3
20260831074939 80 164 0.0 0.0 0.00 0.00 0.00 56 1013.2
20260831074439 80 165 0.0 0.0 0.00 0.00 0.00 56 1013.1
20260831073939 80 166 0.0 0.0 0.00 0.00 0.00 56 1013.3
20260831073438 80 168 0.0 0.0 0.00 0.00 0.00 56 1013.2
20260831072933 80 167 0.0 0.0 0.00 0.00 0.00 57 1013.3
20260831072429 80 166 0.0 1.0 0.00 0.00 0.00 58 1013.0
20260831071925 79 173 0.0 0.0 0.00 0.00 0.00 58 1013.0
20260831071424 80 165 0.0 0.0 0.00 0.00 0.00 58 1013.2
20260831070924 80 166 0.0 0.0 0.00 0.00 0.00 58 1013.0
20260831070424 80 166 0.0 0.0 0.00 0.00 0.00 58 1013.1
20260831065923 80 169 0.0 0.0 0.00 0.00 0.00 57 1013.0
20260831065420 81 178 0.0 0.0 0.00 0.00 0.00 57 1013.4
20260831064916 80 195 0.0 0.0 0.00 0.00 0.00 57 1013.3
20260831064411 80 128 0.0 5.0 0.00 0.00 0.00 57 1013.1
20260831063906 80 169 0.0 0.0 0.00 0.00 0.00 57 1013.3
20260831063402 81 170 0.0 0.0 0.00 0.00 0.00 56 1013.4
20260831062856 81 172 0.0 0.0 0.00 0.00 0.00 56 1013.5
20260831062351 82 180 0.0 0.0 0.00 0.00 0.00 55 1013.5
20260831061850 82 185 0.0 0.0 0.00 0.00 0.00 55 1013.5
20260831061349 82 212 0.0 0.0 0.00 0.00 0.00 55 1013.4
20260831060845 82 271 0.0 0.0 0.00 0.00 0.00 54 1013.3
20260831060340 82 294 0.0 6.0 0.00 0.00 0.00 55 1013.4
20260831055839 82 312 5.0 7.0 0.00 0.00 0.00 54 1013.3
20260831055335 82 194 1.0 2.0 0.00 0.00 0.00 55 1013.0
20260831054830 83 210 1.0 2.0 0.00 0.00 0.00 54 1012.8
20260831054325 83 244 0.0 3.0 0.00 0.00 0.00 54 1012.9
20260831053824 82 178 1.0 2.0 0.00 0.00 0.00 54 1013.0
20260831053323 82 184 1.0 1.0 0.00 0.00 0.00 54 1012.6
20260831052818 83 196 0.0 0.0 0.00 0.00 0.00 53 1012.8
20260831052316 83 180 1.0 2.0 0.00 0.00 0.00 53 1012.8
20260831051815 83 226 1.0 2.0 0.00 0.00 0.00 53 1012.4
20260831051314 83 190 1.0 2.0 0.00 0.00 0.00 53 1012.3
20260831050809 83 222 1.0 5.0 0.00 0.00 0.00 53 1012.2
20260831050307 84 182 2.0 2.0 0.00 0.00 0.00 52 1012.3
20260831045802 84 188 3.0 3.0 0.00 0.00 0.00 51 1012.1
20260831045257 84 161 0.0 3.0 0.00 0.00 0.00 50 1011.9
20260831044752 85 180 0.0 1.0 0.00 0.00 0.00 50 1011.9
20260831044246 85 193 2.0 3.0 0.00 0.00 0.00 50 1011.9
20260831043743 85 176 1.0 3.0 0.00 0.00 0.00 50 1011.4
20260831043237 85 178 2.0 2.0 0.00 0.00 0.00 49 1011.4
20260831042737 85 189 2.0 3.0 0.00 0.00 0.00 49 1011.4
20260831042231 85 230 3.0 3.0 0.00 0.00 0.00 49 1011.2
20260831041727 86 130 1.0 3.0 0.00 0.00 0.00 48 1011.2
20260831041226 86 197 0.0 6.0 0.00 0.00 0.00 48 1010.9
20260831040721 86 147 0.0 3.0 0.00 0.00 0.00 48 1010.9
20260831040220 86 202 3.0 5.0 0.00 0.00 0.00 48 1010.8
20260831035719 86 214 2.0 5.0 0.00 0.00 0.00 48 1010.8
20260831035213 86 197 1.0 3.0 0.00 0.00 0.00 49 1010.6
20260831034712 86 159 1.0 5.0 0.00 0.00 0.00 48 1010.7
20260831034208 86 198 2.0 2.0 0.00 0.00 0.00 48 1010.7
20260831033703 86 221 1.0 2.0 0.00 0.00 0.00 48 1010.6
20260831033203 86 156 1.0 1.0 0.00 0.00 0.00 48 1010.6
20260831032658 87 186 1.0 3.0 0.00 0.00 0.00 47 1010.7
20260831032153 87 177 2.0 3.0 0.00 0.00 0.00 47 1010.9
20260831031648 87 118 1.0 2.0 0.00 0.00 0.00 46 1010.6
20260831031147 88 184 1.0 3.0 0.00 0.00 0.00 45 1010.7
20260831030646 88 147 0.0 6.0 0.00 0.00 0.00 44 1010.7
20260831030146 89 178 1.0 5.0 0.00 0.00 0.00 43 1010.4
20260831025644 89 102 2.0 5.0 0.00 0.00 0.00 43 1010.5
20260831025139 89 246 3.0 6.0 0.00 0.00 0.00 43 1010.7
20260831024635 88 167 2.0 3.0 0.00 0.00 0.00 44 1010.5
20260831024133 88 327 3.0 3.0 0.00 0.00 0.00 44 1010.4
20260831023632 88 164 0.0 0.0 0.00 0.00 0.00 45 1010.4
20260831023126 88 126 0.0 0.0 0.00 0.00 0.00 45 1010.4
20260831022621 88 170 0.0 0.0 0.00 0.00 0.00 45 1010.3
20260831022116 88 148 1.0 2.0 0.00 0.00 0.00 45 1010.3
20260831021615 88 159 0.0 1.0 0.00 0.00 0.00 45 1010.3
20260831021111 88 146 0.0 1.0 0.00 0.00 0.00 45 1010.3
20260831020606 89 162 0.0 0.0 0.00 0.00 0.00 45 1009.9
20260831015557 89 172 1.0 2.0 0.00 0.00 0.00 44 1009.9
20260831015051 89 200 2.0 2.0 0.00 0.00 0.00 44 1009.7
20260831014546 90 187 0.0 3.0 0.00 0.00 0.00 44 1009.6
20260831014041 90 182 0.0 0.0 0.00 0.00 0.00 43 1009.9
20260831013537 91 230 0.0 1.0 0.00 0.00 0.00 42 1009.7
20260831013032 91 178 0.0 3.0 0.00 0.00 0.00 42 1009.7
20260831012527 91 184 0.0 2.0 0.00 0.00 0.00 41 1009.6
20260831012027 92 156 0.0 2.0 0.00 0.00 0.00 41 1009.6
20260831011521 92 194 1.0 2.0 0.00 0.00 0.00 41 1009.5
20260831011017 93 188 2.0 3.0 0.00 0.00 0.00 40 1009.3
20260831010517 94 191 1.0 3.0 0.00 0.00 0.00 39 1009.3